Waarnemingen

Advertentie
Mijn weer
Isle Of Portland, Groot Brittannië (3857): temperatuur & dauwpunt: 15.10.2017 05:00:00 - 21.10.2017 05:00:00 (BST)Isle Of Portland, Groot Brittannië (3857): windsnelheid & windstoten: 15.10.2017 05:00:00 - 21.10.2017 05:00:00 (BST)Isle Of Portland, Groot Brittannië (3857): windrichting: 15.10.2017 05:00:00 - 21.10.2017 05:00:00 (BST)Isle Of Portland, Groot Brittannië (3857): luchtdruk: 15.10.2017 05:00:00 - 21.10.2017 05:00:00 (BST)Isle Of Portland, Groot Brittannië (3857): zicht: 15.10.2017 05:00:00 - 21.10.2017 05:00:00 (BST)Isle Of Portland, Groot Brittannië (3857): neerslag: 15.10.2017 05:00:00 - 21.10.2017 05:00:00 (BST)
Datum & Tijd tt [°C] td [°C] ff [km/u] ff [kn] fx [km/u] fx [kn] dd ppp [hPa] vv [km] rr [mm]
21.10.2017 05:00:00 14,4 10,4 57 31 80 43 ZW 1001,9 7 -
21.10.2017 04:00:00 14,5 11,9 54 29 70 38 ZW 1002,3 8 -
21.10.2017 03:00:00 14,1 12,0 42 23 76 41 ZZW 1002,2 10 -
21.10.2017 02:00:00 14,6 12,6 37 20 52 28 ZZW 1002,6 9 -
21.10.2017 01:00:00 14,0 12,9 37 20 61 33 ZZW 1002,4 11 -
21.10.2017 00:00:00 14,5 14,3 44 24 81 44 ZW 1002,7 6 -
20.10.2017 23:00:00 14,9 14,8 41 22 65 35 Z 1002,8 3,3 -
20.10.2017 22:00:00 14,2 13,8 46 25 68 37 Z 1003,7 2,7 -
20.10.2017 21:00:00 15,5 12,6 44 24 63 34 Z 1004,6 11 0,0
20.10.2017 20:00:00 15,4 11,5 37 20 52 28 Z 1005,9 16 0,0
20.10.2017 19:00:00 15,0 11,4 34 18 46 25 Z 1007,3 12 0,0
20.10.2017 18:00:00 14,7 10,8 31 17 46 25 Z 1007,8 15 0,0
20.10.2017 17:00:00 14,4 10,4 34 18 - - ZZW 1008,8 19 0,0
20.10.2017 16:00:00 14,6 9,9 31 17 - - ZZW 1009,4 19 0,0
20.10.2017 15:00:00 14,0 9,2 29 16 - - ZW 1009,7 16 0,0
20.10.2017 14:00:00 13,9 8,5 35 19 50 27 WZW 1010,0 17 0,0
20.10.2017 13:00:00 13,8 7,9 35 19 55 30 WZW 1009,9 15 0,0
20.10.2017 12:00:00 13,4 7,4 39 21 61 33 W 1009,8 21 0,0
20.10.2017 11:00:00 12,7 6,6 44 24 63 34 W 1009,0 15 0,0
20.10.2017 10:00:00 12,5 6,5 52 28 68 37 W 1008,3 14 0,0
20.10.2017 09:00:00 12,5 7,5 52 28 70 38 W 1007,0 13 0,0
20.10.2017 08:00:00 12,6 8,4 55 30 81 44 W 1005,7 15 0,0
20.10.2017 07:00:00 12,5 8,6 65 35 89 48 W 1003,7 12 0,0
20.10.2017 06:00:00 12,5 10,4 55 30 83 45 W 1002,7 10 0,2
20.10.2017 05:00:00 12,7 10,9 63 34 87 47 W 1001,1 7 0,0
20.10.2017 04:00:00 13,1 11,0 65 35 87 47 WZW 999,8 8 0,2
20.10.2017 03:00:00 13,4 11,3 61 33 87 47 WZW 998,7 9 0,2
20.10.2017 02:00:00 13,5 11,5 65 35 89 48 WZW 998,1 8 0,2
20.10.2017 01:00:00 12,9 11,6 63 34 85 46 ZW 997,7 8 0,0
20.10.2017 00:00:00 13,3 11,1 63 34 83 45 ZW 997,8 12 0,2
19.10.2017 23:00:00 13,3 11,2 57 31 76 41 ZW 997,8 9 0,0
19.10.2017 22:00:00 13,4 11,1 52 28 68 37 ZW 997,6 9 0,0
19.10.2017 21:00:00 13,5 12,0 50 27 67 36 ZW 997,4 7 0,8
19.10.2017 20:00:00 13,2 12,5 48 26 76 41 Z 997,3 1,4 1,4
19.10.2017 19:00:00 14,6 13,4 55 30 74 40 ZZO 997,4 8 1,2
19.10.2017 18:00:00 13,9 12,9 46 25 63 34 ZZO 998,7 4,8 1,6
19.10.2017 17:00:00 14,9 13,7 39 21 52 28 ZZO 999,4 8 0,4
19.10.2017 16:00:00 15,1 13,3 31 17 - - Z 1000,3 14 0,0
19.10.2017 15:00:00 15,2 13,4 26 14 - - Z 1001,0 17 0,0
19.10.2017 14:00:00 15,1 14,1 24 13 - - ZZW 1001,4 18 0,0
19.10.2017 13:00:00 14,2 14,1 24 13 - - ZZW 1002,2 10 0,8
19.10.2017 12:00:00 15,5 15,4 21 11 - - Z 1002,6 3,2 0,0
19.10.2017 11:00:00 15,7 15,7 22 12 - - ZO 1002,7 1,8 0,4
19.10.2017 10:00:00 15,2 15,2 21 11 - - OZO 1003,3 0,3 2,6
19.10.2017 09:00:00 14,9 14,8 18 10 - - O 1004,1 1,7 3,6
19.10.2017 08:00:00 14,4 14,3 5 3 - - O 1004,4 3,2 1,0
19.10.2017 07:00:00 13,7 13,6 18 10 - - O 1005,0 4,3 0,0
19.10.2017 06:00:00 13,1 12,9 16 9 - - ONO 1006,0 2,2 0,0
19.10.2017 05:00:00 13,7 13,4 15 8 - - O 1006,5 6 0,0
19.10.2017 04:00:00 13,4 13,2 8 4 - - O 1007,4 5 0,0
19.10.2017 03:00:00 13,1 12,9 16 9 - - OZO 1007,8 4,7 0,0
19.10.2017 02:00:00 12,8 12,5 16 9 - - O 1008,3 1,4 0,0
19.10.2017 01:00:00 12,7 12,3 5 3 - - O 1009,3 3,5 0,0
19.10.2017 00:00:00 12,2 11,8 8 4 - - OZO 1009,7 4,7 0,0
18.10.2017 23:00:00 12,1 11,6 9 5 - - OZO 1009,8 4,9 0,0
18.10.2017 22:00:00 13,2 12,4 5 3 - - WNW 1010,0 7 0,0
18.10.2017 21:00:00 13,6 13,0 5 3 - - W 1010,1 7 0,0
18.10.2017 20:00:00 14,0 13,6 9 5 - - WNW 1010,3 3,8 0,0
18.10.2017 19:00:00 14,0 13,5 9 5 - - NNW 1010,1 2,4 0,0
18.10.2017 18:00:00 14,3 13,5 9 5 - - NNW 1009,5 3,0 0,0
18.10.2017 17:00:00 15,2 14,5 4 2 - - ZW 1009,4 6 0,0
18.10.2017 16:00:00 14,8 14,1 9 5 - - O 1009,6 5 0,0
18.10.2017 15:00:00 15,0 14,4 13 7 - - ONO 1009,4 5 0,0
18.10.2017 14:00:00 14,0 13,5 16 9 - - O 1009,8 4,7 0,0
18.10.2017 13:00:00 13,6 13,4 21 11 - - ONO 1010,1 4,0 0,4
18.10.2017 12:00:00 12,8 12,5 24 13 - - ONO 1010,5 2,2 0,2
18.10.2017 11:00:00 12,5 12,1 21 11 - - ONO 1010,5 3,9 0,0
18.10.2017 10:00:00 12,3 11,7 24 13 - - ONO 1010,5 6 0,0
18.10.2017 09:00:00 11,7 11,0 26 14 - - ONO 1010,8 10 0,4
18.10.2017 08:00:00 11,5 10,4 29 16 - - ONO 1010,5 6 0,2
18.10.2017 07:00:00 11,5 10,1 34 18 - - ONO 1010,3 16 0,0
18.10.2017 06:00:00 11,2 9,8 31 17 - - ONO 1010,8 20 0,0
18.10.2017 05:00:00 11,3 9,6 35 19 46 25 ONO 1010,9 19 0,0
18.10.2017 04:00:00 11,2 9,5 35 19 48 26 ONO 1011,6 20 0,0
18.10.2017 03:00:00 11,0 9,3 35 19 46 25 ONO 1012,3 24 0,0
18.10.2017 02:00:00 10,3 9,2 28 15 - - NO 1013,1 24 0,0
18.10.2017 01:00:00 10,1 8,7 22 12 - - NNO 1014,0 30 0,0
18.10.2017 00:00:00 10,0 8,3 26 14 - - NNO 1014,7 35 0,2
17.10.2017 23:00:00 10,0 9,1 22 12 - - NO 1015,2 17 5,8
17.10.2017 22:00:00 10,3 8,7 15 8 - - NNO 1016,4 7 1,6
17.10.2017 21:00:00 10,5 8,8 21 11 - - ONO 1016,2 12 1,0
17.10.2017 20:00:00 11,0 9,6 22 12 - - ONO 1016,3 9 0,8
17.10.2017 19:00:00 11,1 9,5 18 10 - - O 1016,6 13 0,8
17.10.2017 18:00:00 10,9 9,3 11 6 - - O 1017,0 15 0,4
17.10.2017 17:00:00 11,0 9,4 11 6 - - O 1017,6 19 0,8
17.10.2017 16:00:00 11,5 9,5 15 8 - - OZO 1018,2 11 1,4
17.10.2017 15:00:00 12,7 9,9 9 5 - - OZO 1018,8 10 0,4
17.10.2017 14:00:00 14,2 9,5 2 1 - - O 1019,7 21 0,0
17.10.2017 13:00:00 14,2 8,9 4 2 - - WZW 1020,4 15 0,0
17.10.2017 12:00:00 14,2 9,2 11 6 - - WZW 1020,9 10 0,0
17.10.2017 11:00:00 14,3 8,7 13 7 - - WZW 1020,7 13 0,0
17.10.2017 10:00:00 14,0 8,2 16 9 - - W 1020,6 16 0,0
17.10.2017 09:00:00 14,0 8,2 21 11 - - W 1020,6 12 0,0
17.10.2017 08:00:00 13,9 7,8 26 14 - - W 1019,9 14 0,0
17.10.2017 07:00:00 13,8 8,4 29 16 - - WZW 1020,0 6 0,0
17.10.2017 06:00:00 14,1 9,2 34 18 46 25 W 1019,5 13 0,0
17.10.2017 05:00:00 14,3 10,0 31 17 - - W 1019,4 8 0,0
17.10.2017 04:00:00 14,3 10,0 37 20 52 28 W 1019,8 9 0,0
17.10.2017 03:00:00 14,3 9,6 39 21 57 31 WZW 1020,1 7 0,0
17.10.2017 02:00:00 14,3 9,0 46 25 59 32 WZW 1020,0 11 0,0
17.10.2017 01:00:00 14,5 10,0 46 25 63 34 WZW 1020,0 9 0,0
17.10.2017 00:00:00 14,5 9,4 52 28 65 35 WZW 1019,9 8 0,0
16.10.2017 23:00:00 14,8 10,0 50 27 68 37 WZW 1019,6 10 0,0
16.10.2017 22:00:00 14,8 9,8 52 28 67 36 WZW 1019,3 10 0,0
16.10.2017 21:00:00 14,8 9,6 55 30 76 41 WZW 1018,3 7 0,0
16.10.2017 20:00:00 15,1 10,5 55 30 72 39 WZW 1018,1 6 0,0
16.10.2017 19:00:00 15,1 10,2 57 31 70 38 ZW 1017,2 7 0,0
16.10.2017 18:00:00 15,4 10,3 55 30 70 38 ZW 1016,6 9 0,0
16.10.2017 17:00:00 16,0 10,6 54 29 70 38 ZW 1016,4 9 0,0
16.10.2017 16:00:00 16,5 12,1 50 27 67 36 ZW 1016,0 9 0,0
16.10.2017 15:00:00 17,1 12,4 48 26 63 34 ZW 1015,6 8 0,0
16.10.2017 14:00:00 17,5 13,2 41 22 61 33 ZW 1015,2 8 0,0
16.10.2017 13:00:00 16,6 13,1 46 25 61 33 ZW 1014,8 8 0,0
16.10.2017 12:00:00 17,3 14,7 44 24 63 34 ZW 1014,3 7 0,0
16.10.2017 11:00:00 17,5 15,5 35 19 50 27 Z 1013,5 7 0,0
16.10.2017 10:00:00 17,6 15,3 34 18 55 30 Z 1012,8 8 0,0
16.10.2017 09:00:00 18,2 15,3 42 23 61 33 Z 1012,4 11 0,0
16.10.2017 08:00:00 18,1 15,5 42 23 59 32 ZZO 1011,1 11 0,0
16.10.2017 07:00:00 17,5 15,9 29 16 - - ZO 1012,1 13 0,0
16.10.2017 06:00:00 17,5 16,0 18 10 - - O 1013,5 11 0,0
16.10.2017 05:00:00 17,1 15,9 15 8 - - ZO 1014,7 10 0,0
16.10.2017 04:00:00 16,7 15,4 21 11 - - OZO 1014,5 11 0,0
16.10.2017 03:00:00 16,8 15,6 15 8 - - Z 1015,1 10 0,0
16.10.2017 02:00:00 16,4 15,6 15 8 - - Z 1015,5 8 0,0
16.10.2017 01:00:00 16,6 15,8 16 9 - - Z 1015,9 7 0,0
16.10.2017 00:00:00 16,7 16,0 21 11 - - Z 1016,2 6 0,0
15.10.2017 23:00:00 16,6 16,0 21 11 - - Z 1016,2 5 0,0
15.10.2017 22:00:00 16,9 16,2 24 13 - - Z 1016,1 6 0,0
15.10.2017 21:00:00 16,9 16,2 26 14 - - Z 1015,8 7 0,0
15.10.2017 20:00:00 16,5 16,0 21 11 - - ZZO 1016,2 8 0,0
15.10.2017 19:00:00 15,6 15,0 22 12 - - OZO 1016,2 5 0,0
15.10.2017 18:00:00 15,7 15,2 18 10 - - ZO 1016,3 4,7 0,0
15.10.2017 17:00:00 16,2 15,1 13 7 - - ZO 1016,6 5 0,0
15.10.2017 16:00:00 16,6 14,2 15 8 - - ZO 1016,9 10 0,0
15.10.2017 15:00:00 16,9 14,2 13 7 - - Z 1017,6 11 0,0
15.10.2017 14:00:00 16,7 14,4 13 7 - - Z 1017,8 11 0,0
15.10.2017 13:00:00 16,9 14,0 9 5 - - ZW 1018,0 12 0,0
15.10.2017 12:00:00 16,0 13,6 21 11 - - ZW 1018,5 11 0,0
15.10.2017 11:00:00 15,5 13,4 22 12 - - ZW 1018,5 10 0,0
15.10.2017 10:00:00 15,3 13,5 22 12 - - ZW 1018,5 10 0,0
15.10.2017 09:00:00 15,1 13,8 29 16 - - ZW 1018,4 9 0,0
15.10.2017 08:00:00 15,5 15,2 16 9 - - ZW 1018,1 5 0,0
15.10.2017 07:00:00 15,4 15,1 21 11 - - ZW 1018,1 3,7 0,0
15.10.2017 06:00:00 15,3 15,1 18 10 - - WZW 1018,0 7 0,0
15.10.2017 05:00:00 15,9 15,9 24 13 - - Z 1018,0 11 0,0

tt = temperatuur
td = dauwpunt
ff = windsnelheid
fx = windstoten
dd = windrichting
ppp = luchtdruk
vv = zicht
rr = neerslag

Weerstations in de omgeving